When you browse on this site, cookies collect data to enhance your experience and personalize the content and advertising you see.
Visit our Privacy Policy to learn more. By continuing to use the site, you agree to this use of cookies and data.
  • In Romania
  • List of Countries
  • For 7 days
  • Water Temperature
  • Satellite Maps
  • Weather Map
  • Weather Widgets
  • user-avatar
    Login

    Hourly Weather The Pas

    Today, 18 January, Friday

    Time Temperature Precipitation Wind Pressure Humidity
    00:00 -36°C° 0 mm 2 mps 746 mmHg 95%
    01:00 -37°C° 0 mm 2 mps 746 mmHg 95%
    02:00 -37°C° 0 mm 2 mps 747 mmHg 95%
    03:00 -38°C° 0 mm 2 mps 747 mmHg 95%
    04:00 -38°C° 0 mm 2 mps 747 mmHg 95%
    05:00 -35°C° 0 mm 1 mps 747 mmHg 95%
    06:00 -35°C° 0 mm 1 mps 748 mmHg 95%
    07:00 -35°C° 0 mm 1 mps 748 mmHg 94%
    08:00 -36°C° 0 mm 1 mps 748 mmHg 94%
    09:00 -34°C° 0 mm 1 mps 748 mmHg 92%
    10:00 -35°C° 0 mm 2 mps 749 mmHg 90%
    11:00 -32°C° 0 mm 2 mps 749 mmHg 89%
    12:00 -31°C° 0 mm 2 mps 749 mmHg 89%
    13:00 -31°C° 0 mm 2 mps 749 mmHg 89%
    14:00 -30°C° 0 mm 2 mps 748 mmHg 89%
    15:00 -31°C° 0 mm 2 mps 748 mmHg 91%
    16:00 -32°C° 0 mm 2 mps 748 mmHg 92%
    17:00 -31°C° 0 mm 1 mps 748 mmHg 94%
    18:00 -34°C° 0 mm 2 mps 749 mmHg 94%
    19:00 -34°C° 0 mm 2 mps 749 mmHg 94%
    20:00 -35°C° 0 mm 2 mps 749 mmHg 94%
    21:00 -35°C° 0 mm 2 mps 749 mmHg 95%
    22:00 -35°C° 0 mm 2 mps 749 mmHg 95%
    23:00 -35°C° 0 mm 2 mps 749 mmHg 95%

    Tomorrow, 19 January, Saturday

    Time Temperature Precipitation Wind Pressure Humidity
    00:00 -33°C° 0 mm 1 mps 749 mmHg 95%
    01:00 -33°C° 0 mm 1 mps 750 mmHg 95%
    02:00 -33°C° 0 mm 1 mps 750 mmHg 95%
    03:00 -34°C° 0 mm 1 mps 750 mmHg 96%
    04:00 -34°C° 0 mm 1 mps 750 mmHg 96%
    05:00 -35°C° 0 mm 1 mps 750 mmHg 96%
    06:00 -35°C° 0 mm 1 mps 750 mmHg 96%
    07:00 -35°C° 0 mm 1 mps 750 mmHg 96%
    08:00 -35°C° 0 mm 1 mps 750 mmHg 96%
    09:00 -32°C° 0 mm 0 mps 750 mmHg 94%
    10:00 -30°C° 0 mm 0 mps 750 mmHg 91%
    11:00 -28°C° 0 mm 0 mps 750 mmHg 89%
    12:00 -29°C° 0 mm 1 mps 749 mmHg 88%
    13:00 -28°C° 0 mm 1 mps 749 mmHg 88%
    14:00 -27°C° 0 mm 1 mps 748 mmHg 88%
    15:00 -29°C° 0 mm 1 mps 748 mmHg 91%
    16:00 -32°C° 0 mm 2 mps 747 mmHg 93%
    17:00 -34°C° 0 mm 2 mps 747 mmHg 96%
    18:00 -35°C° 0 mm 2 mps 746 mmHg 96%
    19:00 -35°C° 0 mm 2 mps 746 mmHg 96%
    20:00 -35°C° 0 mm 2 mps 745 mmHg 96%
    21:00 -35°C° 0 mm 2 mps 745 mmHg 96%
    22:00 -35°C° 0 mm 2 mps 744 mmHg 96%
    23:00 -34°C° 0 mm 2 mps 744 mmHg 96%

    Day after tomorrow, 20 January, Sunday

    Time Temperature Precipitation Wind Pressure Humidity
    00:00 -34°C° 0 mm 2 mps 744 mmHg 95%
    01:00 -34°C° 0 mm 3 mps 743 mmHg 94%
    02:00 -34°C° 0 mm 3 mps 743 mmHg 93%
    03:00 -34°C° 0 mm 3 mps 742 mmHg 93%
    04:00 -34°C° 0 mm 3 mps 742 mmHg 93%
    05:00 -34°C° 0 mm 3 mps 741 mmHg 92%
    06:00 -33°C° 0 mm 3 mps 740 mmHg 92%
    07:00 -33°C° 0 mm 3 mps 740 mmHg 91%
    08:00 -33°C° 0 mm 3 mps 739 mmHg 90%
    09:00 -31°C° 0 mm 3 mps 739 mmHg 90%
    10:00 -30°C° 0 mm 3 mps 738 mmHg 91%
    11:00 -29°C° 0 mm 4 mps 737 mmHg 91%
    12:00 -26°C° 0 mm 3 mps 736 mmHg 92%
    13:00 -25°C° 0 mm 3 mps 735 mmHg 92%
    14:00 -25°C° 0 mm 3 mps 734 mmHg 93%
    15:00 -25°C° 0.1 mm 3 mps 734 mmHg 93%
    16:00 -24°C° 0.1 mm 3 mps 733 mmHg 94%
    17:00 -24°C° 0.1 mm 3 mps 732 mmHg 95%
    18:00 -24°C° 0.1 mm 3 mps 732 mmHg 95%
    19:00 -21°C° 0.1 mm 2 mps 731 mmHg 95%
    20:00 -21°C° 0.1 mm 2 mps 730 mmHg 95%
    21:00 -20°C° 0.1 mm 2 mps 730 mmHg 95%
    22:00 -20°C° 0.1 mm 2 mps 729 mmHg 95%
    23:00 -17°C° 0.1 mm 1 mps 729 mmHg 96%

    21 January, Monday

    Time Temperature Precipitation Wind Pressure Humidity
    00:00 -17°C° 0.1 mm 1 mps 729 mmHg 96%
    01:00 -17°C° 0.1 mm 1 mps 729 mmHg 96%
    02:00 -17°C° 0.1 mm 0 mps 728 mmHg 97%
    03:00 -17°C° 0.1 mm 1 mps 729 mmHg 96%
    04:00 -19°C° 0.1 mm 2 mps 729 mmHg 95%
    05:00 -21°C° 0.1 mm 3 mps 730 mmHg 94%
    06:00 -22°C° 0.1 mm 3 mps 730 mmHg 93%
    07:00 -23°C° 0.1 mm 4 mps 731 mmHg 92%
    08:00 -24°C° 0.1 mm 4 mps 732 mmHg 91%
    09:00 -24°C° 0 mm 4 mps 733 mmHg 90%
    10:00 -24°C° 0 mm 4 mps 734 mmHg 88%
    11:00 -25°C° 0 mm 5 mps 734 mmHg 86%
    12:00 -25°C° 0 mm 5 mps 735 mmHg 86%
    13:00 -24°C° 0 mm 5 mps 736 mmHg 85%
    14:00 -24°C° 0 mm 5 mps 736 mmHg 84%
    15:00 -24°C° 0 mm 4 mps 737 mmHg 86%
    16:00 -24°C° 0 mm 4 mps 738 mmHg 88%
    17:00 -24°C° 0 mm 3 mps 739 mmHg 90%
    18:00 -25°C° 0 mm 3 mps 740 mmHg 91%
    19:00 -26°C° 0 mm 3 mps 741 mmHg 92%
    20:00 -27°C° 0 mm 3 mps 742 mmHg 93%
    21:00 -29°C° 0 mm 3 mps 742 mmHg 93%
    22:00 -28°C° 0 mm 2 mps 743 mmHg 94%
    23:00 -29°C° 0 mm 2 mps 743 mmHg 95%

    22 January, Tuesday

    Time Temperature Precipitation Wind Pressure Humidity
    00:00 -30°C° 0 mm 2 mps 743 mmHg 95%
    01:00 -31°C° 0 mm 2 mps 744 mmHg 95%
    02:00 -32°C° 0 mm 2 mps 744 mmHg 95%
    03:00 -32°C° 0 mm 2 mps 744 mmHg 95%
    04:00 -31°C° 0 mm 1 mps 744 mmHg 95%
    05:00 -31°C° 0 mm 1 mps 744 mmHg 95%
    06:00 -31°C° 0 mm 1 mps 744 mmHg 96%
    07:00 -31°C° 0 mm 1 mps 744 mmHg 97%
    08:00 -31°C° 0 mm 1 mps 744 mmHg 97%
    09:00 -29°C° 0 mm 1 mps 743 mmHg 95%
    10:00 -27°C° 0 mm 1 mps 743 mmHg 93%
    11:00 -24°C° 0 mm 1 mps 743 mmHg 91%
    12:00 -22°C° 0 mm 1 mps 742 mmHg 90%
    13:00 -21°C° 0 mm 1 mps 741 mmHg 90%
    14:00 -19°C° 0 mm 1 mps 740 mmHg 89%
    15:00 -20°C° 0 mm 1 mps 740 mmHg 91%
    16:00 -21°C° 0 mm 1 mps 739 mmHg 93%
    17:00 -22°C° 0 mm 1 mps 739 mmHg 96%
    18:00 -22°C° 0 mm 1 mps 738 mmHg 96%
    19:00 -22°C° 0 mm 1 mps 738 mmHg 97%
    20:00 -23°C° 0 mm 0 mps 737 mmHg 97%
    21:00 -22°C° 0 mm 0 mps 737 mmHg 97%
    22:00 -22°C° 0 mm 0 mps 737 mmHg 97%
    23:00 -22°C° 0 mm 1 mps 736 mmHg 97%

    23 January, Wednesday

    Time Temperature Precipitation Wind Pressure Humidity
    00:00 -23°C° 0 mm 1 mps 736 mmHg 97%
    01:00 -23°C° 0 mm 1 mps 737 mmHg 97%
    02:00 -27°C° 0 mm 2 mps 737 mmHg 97%
    03:00 -28°C° 0 mm 2 mps 737 mmHg 97%
    04:00 -29°C° 0 mm 2 mps 738 mmHg 97%
    05:00 -30°C° 0 mm 2 mps 738 mmHg 97%
    06:00 -31°C° 0 mm 2 mps 739 mmHg 97%
    07:00 -32°C° 0 mm 2 mps 740 mmHg 97%
    08:00 -34°C° 0 mm 2 mps 740 mmHg 97%
    09:00 -32°C° 0 mm 2 mps 741 mmHg 95%
    10:00 -31°C° 0 mm 2 mps 742 mmHg 94%
    11:00 -30°C° 0 mm 2 mps 743 mmHg 92%
    12:00 -30°C° 0 mm 2 mps 743 mmHg 91%
    13:00 -27°C° 0 mm 1 mps 744 mmHg 90%
    14:00 -25°C° 0 mm 1 mps 744 mmHg 89%
    15:00 -28°C° 0 mm 1 mps 744 mmHg 91%
    16:00 -29°C° 0 mm 1 mps 745 mmHg 93%
    17:00 -30°C° 0 mm 1 mps 745 mmHg 95%
    18:00 -31°C° 0 mm 1 mps 745 mmHg 95%
    19:00 -31°C° 0 mm 1 mps 745 mmHg 95%
    20:00 -31°C° 0 mm 1 mps 745 mmHg 95%
    21:00 -31°C° 0 mm 1 mps 745 mmHg 94%
    22:00 -32°C° 0 mm 2 mps 744 mmHg 94%
    23:00 -32°C° 0 mm 2 mps 743 mmHg 94%
    Show more